Home > Time Zones > World Clock > Weather > Spain > Jaén > Past weeks

Flag for Spain Weather past 2 weeks in Jaén, Spain

Now
66 °F

Sunny.


Feels Like: 66 °F
Forecast: 52 / 81 °F
Wind: 1 mph from North

Location: Granada / Aeropuerto

Current Time: Oct 23, 2014 at 1:09:41 PM

Latest Report: Oct 23, 2014 at 12:30 PM


Visibility: 10 mi

Pressure: 30.24 "Hg

Humidity: 40%

Dew point: 41 °F

Location of JaénLocation

Historic Weather in Jaén — Graph

°F

Jaén temperature yesterday

Maximum temperature yesterday: 88 °F (at 4:00 PM)
Minimum temperature yesterday: 50 °F (at 6:30 AM)
Average temperature yesterday: 65 °F

Past Weeks' High & Low Weather Summary

 TemperatureHumidityPressure
High91 °F (Oct 19, 3:30 PM)100% (Oct 10, 6:30 AM)30.36 "Hg (Oct 10, 6:30 AM)
Low43 °F (Oct 23, 8:30 AM)15% (Oct 19, 3:30 PM)29.80 "Hg (Oct 11, 5:00 PM)
Average64 °F69%30.08 "Hg
* Reported Oct 8 12:00 Noon — Oct 23 12:00 Noon, Jaén, Weather by CustomWeather, © 2014

Note: Actual official high and low records may vary slightly from our data, if they occured in-between our weather recording intervals... More about our weather records

Advertising

Jaén weather history for previous 24 hours

 ConditionsComfort  
Time TempWeatherWind HumidityBarometerVisibility
12:00 PM
Oct 23
64 °FSunny.1 mph46%30.24 "Hg10 mi
11:30 AM63 °FSunny.No wind49%30.24 "Hg10 mi
11:00 AM57 °FSunny.1 mph55%30.24 "Hg10 mi
10:30 AM57 °FSunny.No wind55%30.27 "Hg10 mi
10:00 AM55 °FSunny.No wind59%30.24 "Hg10 mi
9:30 AM50 °FSunny.No wind71%30.24 "Hg10 mi
9:00 AM45 °FClear.1 mph81%30.24 "Hg10 mi
8:30 AM43 °FClear.1 mph87%30.24 "Hg10 mi
8:00 AM45 °FClear.No wind87%30.24 "Hg10 mi
7:30 AM45 °FClear.No wind76%30.21 "Hg10 mi
7:00 AM45 °FClear.No wind81%30.24 "Hg10 mi
6:30 AM45 °FClear.No wind81%30.24 "Hg10 mi
6:00 AM46 °FClear.No wind71%30.21 "Hg10 mi
5:30 AM46 °FClear.1 mph71%30.24 "Hg10 mi
5:00 AM46 °FClear.No wind71%30.24 "Hg10 mi
4:30 AM48 °FClear.No wind66%30.24 "Hg10 mi
4:00 AM48 °FClear.1 mph66%30.24 "Hg10 mi
3:30 AM50 °FClear.No wind67%30.24 "Hg10 mi
3:00 AM52 °FClear.No wind58%30.24 "Hg10 mi
2:30 AM55 °FClear.6 mph47%30.24 "Hg10 mi
2:00 AM55 °FClear.1 mph47%30.24 "Hg10 mi
1:30 AM57 °FClear.6 mph48%30.24 "Hg10 mi
1:00 AM55 °FClear.1 mph55%30.24 "Hg10 mi
12:30 AM57 °FPassing clouds.3 mph51%30.24 "HgN/A
12:00 AM55 °FClear.1 mph59%30.27 "Hg10 mi
11:30 PM
Oct 22
59 °FClear.1 mph51%30.27 "Hg10 mi
11:00 PM61 °FClear.2 mph48%30.27 "Hg10 mi
10:30 PM63 °FClear.1 mph49%30.24 "Hg10 mi
10:00 PM66 °FClear.1 mph40%30.24 "Hg10 mi
9:30 PM68 °FPassing clouds.3 mph38%30.24 "HgN/A
9:00 PM70 °FClear.5 mph38%30.24 "Hg10 mi
8:30 PM72 °FClear.2 mph38%30.21 "Hg10 mi
8:00 PM73 °FSunny.7 mph36%30.21 "Hg10 mi
7:30 PM75 °FPassing clouds.8 mph31%30.21 "HgN/A
7:00 PM79 °FPassing clouds.8 mph24%30.21 "HgN/A
6:30 PM82 °FPassing clouds.5 mph20%30.21 "HgN/A
6:00 PM84 °FPassing clouds.7 mph22%30.18 "HgN/A
5:30 PM86 °FPassing clouds.5 mph19%30.21 "HgN/A
5:00 PM86 °FPassing clouds.6 mph18%30.21 "HgN/A
4:30 PM88 °FPassing clouds.8 mph16%30.21 "HgN/A
4:00 PM88 °FPassing clouds.6 mph18%30.21 "HgN/A
3:30 PM86 °FPassing clouds.10 mph18%30.24 "HgN/A
3:00 PM86 °FPassing clouds.5 mph27%30.24 "HgN/A
2:30 PM84 °FSunny.No wind31%30.27 "Hg10 mi
2:00 PM81 °FSunny.No wind32%30.27 "Hg10 mi
1:30 PM77 °FSunny.No wind39%30.30 "Hg10 mi
1:00 PM73 °FSunny.No wind47%30.30 "Hg10 mi
Weather by CustomWeather, © 2014

See weather overviewHow to use our weather pages